Deep Creek Georgetown DE USA current weather conditions

sailwx.info

Wind from 201

Air temperature 14.5° C
Dewpoint 13.7° C

Last reported at 2020-Sep-24 06:05 UTC.
Time now 2020-Sep-24 07:08 UTC

Location: N 38°38' W 075°27'.
View on Google Maps.

See reports from other nearby stations

  
Tides and Currents Weather Stations Pressure Air Temp Water Temp Dewpoint Dewpoint Depression Visibility Wind Speed Wind Dir Waves Ship Positions
date/time (UTC)wind fromknots sea level pressurealtimeterstation pressurevisibilityair tempwater tempwave heightnotes
2020-Sep-24 06:05 201 14.5
2020-Sep-24 06:00 212 14.2
2020-Sep-24 05:55 195 0 gusting 1 14.1
2020-Sep-24 05:50 221 14.0
2020-Sep-24 05:45 212 13.7
2020-Sep-24 05:40 182 0 gusting 1 13.7
2020-Sep-24 05:35 214 13.5
2020-Sep-24 05:30 203 0 gusting 1 13.5
2020-Sep-24 05:25 203 0 gusting 1 13.4
2020-Sep-24 05:20 224 0 gusting 1 13.5
2020-Sep-24 05:15 187 13.6
2020-Sep-24 05:10 192 13.4
2020-Sep-24 05:05 197 13.2
2020-Sep-24 05:00 180 13.6
2020-Sep-24 04:55 164 13.7
2020-Sep-24 04:50 177 13.7
2020-Sep-24 04:45 118 13.7
2020-Sep-24 04:40 013 0 gusting 1 13.8
2020-Sep-24 04:35 230 14.0
2020-Sep-24 04:30 211 13.8
2020-Sep-24 04:25 229 14.0
2020-Sep-24 04:20 221 14.2
2020-Sep-24 04:15 195 14.0
2020-Sep-24 04:10 215 0 gusting 1 14.2
2020-Sep-24 04:05 326 0 gusting 2 14.3
2020-Sep-24 04:00 230 0 gusting 2 14.5
2020-Sep-24 03:55 212 14.7
2020-Sep-24 03:50 207 14.6
2020-Sep-24 03:45 198 14.7
2020-Sep-24 03:40 176 14.7
2020-Sep-24 03:35 181 15.0
2020-Sep-24 03:30 185 15.2
2020-Sep-24 03:25 178 15.3
2020-Sep-24 03:20 200 15.6
2020-Sep-24 03:15 215 0 gusting 1 15.9
2020-Sep-24 03:10 214 0 gusting 1 15.8
2020-Sep-24 03:05 211 1 gusting 2 16.0
2020-Sep-24 03:00 214 1 gusting 2 16.0
2020-Sep-24 02:55 212 1 gusting 2 15.7
2020-Sep-24 02:50 205 1 gusting 2 15.5
2020-Sep-24 02:45 201 1 gusting 2 15.7
2020-Sep-24 02:40 207 2 gusting 2 16.3
2020-Sep-24 02:35 217 1 gusting 2 16.3
2020-Sep-24 02:30 214 2 gusting 2 16.3
2020-Sep-24 02:25 214 1 gusting 2 16.5
2020-Sep-24 02:20 220 1 gusting 2 16.6
2020-Sep-24 02:15 221 2 gusting 3 16.6
2020-Sep-24 02:10 219 2 gusting 3 16.8
2020-Sep-24 02:05 220 1 gusting 2 16.7
2020-Sep-24 02:00 225 1 gusting 2 16.4
2020-Sep-24 01:55 216 1 gusting 2 16.6
2020-Sep-24 01:50 215 1 gusting 2 16.8
2020-Sep-24 01:45 212 2 gusting 2 16.9
2020-Sep-24 01:40 215 1 gusting 2 17.1
2020-Sep-24 01:35 219 1 gusting 2 17.1
2020-Sep-24 01:30 215 0 gusting 2 17.1
2020-Sep-24 01:25 210 1 gusting 2 17.2
2020-Sep-24 01:20 213 0 gusting 1 17.3
2020-Sep-24 01:15 211 1 gusting 2 17.3
2020-Sep-24 01:10 208 1 gusting 3 17.4
2020-Sep-24 01:05 213 2 gusting 3 17.5
2020-Sep-24 01:00 219 2 gusting 3 17.6
2020-Sep-24 00:55 222 2 gusting 3 17.7
2020-Sep-24 00:50 220 2 gusting 2 17.8
2020-Sep-24 00:45 222 2 gusting 3 17.8
2020-Sep-24 00:40 218 1 gusting 2 17.7
2020-Sep-24 00:35 206 0 gusting 2 17.7
2020-Sep-24 00:30 202 1 gusting 2 17.9
2020-Sep-24 00:25 205 1 gusting 2 18.1
2020-Sep-24 00:20 214 1 gusting 2 18.3
2020-Sep-24 00:15 221 2 gusting 3 18.4
2020-Sep-24 00:10 221 2 gusting 3 18.3
2020-Sep-24 00:05 218 1 gusting 2 18.1
2020-Sep-24 00:00 212 1 gusting 2 18.3
2020-Sep-23 23:55 200 0 gusting 2 18.4
2020-Sep-23 23:50 199 0 gusting 1 18.4
2020-Sep-23 23:45 191 18.3
2020-Sep-23 23:40 185 0 gusting 2 18.2
2020-Sep-23 23:35 196 1 gusting 2 19.0
2020-Sep-23 23:30 210 2 gusting 2 19.6
2020-Sep-23 23:25 217 1 gusting 2 19.5
2020-Sep-23 23:20 213 0 gusting 1 19.5
2020-Sep-23 23:15 210 1 gusting 2 19.6
2020-Sep-23 23:10 211 2 gusting 2 19.6
2020-Sep-23 23:05 215 1 gusting 3 19.7
2020-Sep-23 23:00 205 0 gusting 2 20.0
2020-Sep-23 22:55 215 2 gusting 3 21.0
2020-Sep-23 22:50 236 1 gusting 3 21.4
2020-Sep-23 22:45 236 2 gusting 3 21.2
2020-Sep-23 22:40 233 2 gusting 4 22.1
2020-Sep-23 22:35 250 3 gusting 4 22.3
2020-Sep-23 22:30 254 3 gusting 4 22.5
2020-Sep-23 22:25 257 3 gusting 4 22.8
2020-Sep-23 22:20 258 3 gusting 5 23.2
2020-Sep-23 22:15 255 3 gusting 5 23.2
2020-Sep-23 22:10 253 4 gusting 7 23.5
2020-Sep-23 22:05 258 5 gusting 9 23.6
2020-Sep-23 22:00 257 6 gusting 9 23.7
2020-Sep-23 21:55 257 6 gusting 9 23.8
2020-Sep-23 21:50 254 5 gusting 9 24.0
2020-Sep-23 21:45 248 5 gusting 7 24.1
2020-Sep-23 21:40 252 5 gusting 8 24.2
2020-Sep-23 21:35 262 5 gusting 7 24.2
2020-Sep-23 21:30 260 5 gusting 9 24.2
2020-Sep-23 21:25 259 6 gusting 9 24.2
2020-Sep-23 21:20 263 6 gusting 11 24.3
2020-Sep-23 21:15 260 6 gusting 10 24.4
2020-Sep-23 21:10 262 6 gusting 9 24.5
2020-Sep-23 21:05 252 5 gusting 8 24.5
2020-Sep-23 21:00 252 7 gusting 11 24.4
2020-Sep-23 20:55 257 7 gusting 11 24.5
2020-Sep-23 20:50 237 7 gusting 12 24.5
2020-Sep-23 20:45 238 6 gusting 10 24.6
2020-Sep-23 20:40 250 7 gusting 11 24.7
2020-Sep-23 20:35 235 7 gusting 12 24.9
2020-Sep-23 20:30 233 6 gusting 10 24.9
2020-Sep-23 20:25 243 6 gusting 13 25.2
2020-Sep-23 20:20 230 5 gusting 9 25.3
2020-Sep-23 20:15 246 6 gusting 9 25.5
2020-Sep-23 20:10 256 5 gusting 8 25.3
2020-Sep-23 20:05 239 6 gusting 10 25.4
2020-Sep-23 20:00 242 7 gusting 11 25.1
2020-Sep-23 19:55 242 8 gusting 12 25.3
2020-Sep-23 19:50 245 6 gusting 9 25.5
2020-Sep-23 19:45 243 6 gusting 11 25.6
2020-Sep-23 19:40 264 6 gusting 10 25.4
2020-Sep-23 19:35 260 6 gusting 11 25.4
2020-Sep-23 19:30 246 6 gusting 11 25.5
2020-Sep-23 19:25 282 5 gusting 9 25.4
2020-Sep-23 19:20 284 6 gusting 9 25.4
2020-Sep-23 19:15 281 5 gusting 9 25.6
2020-Sep-23 19:10 260 6 gusting 10 25.6
2020-Sep-23 19:05 272 4 gusting 9 25.6
2020-Sep-23 19:00 273 4 gusting 8 25.7
2020-Sep-23 18:55 275 4 gusting 8 25.5
2020-Sep-23 18:50 246 5 gusting 8 25.2
2020-Sep-23 18:45 266 5 gusting 8 25.3
2020-Sep-23 18:40 247 6 gusting 10 25.4
2020-Sep-23 18:35 253 3 gusting 8 25.5
2020-Sep-23 18:30 271 3 gusting 9 25.4
2020-Sep-23 18:25 250 4 gusting 8 24.8
2020-Sep-23 18:20 285 5 gusting 13 25.3
2020-Sep-23 18:15 256 4 gusting 7 25.1
2020-Sep-23 18:10 286 5 gusting 9 25.0
2020-Sep-23 18:05 279 5 gusting 7 24.9
2020-Sep-23 18:00 295 6 gusting 9 24.9
2020-Sep-23 17:55 292 4 gusting 7 24.8
2020-Sep-23 17:50 284 5 gusting 7 24.8
2020-Sep-23 17:45 304 5 gusting 8 24.5
2020-Sep-23 17:40 293 5 gusting 9 24.6
2020-Sep-23 17:35 264 6 gusting 11 24.5
2020-Sep-23 17:30 278 5 gusting 8 24.2
2020-Sep-23 17:25 287 5 gusting 10 24.3
2020-Sep-23 17:20 279 6 gusting 10 24.2
2020-Sep-23 17:15 272 5 gusting 8 24.2
2020-Sep-23 17:10 267 5 gusting 10 24.0
2020-Sep-23 17:05 277 6 gusting 10 23.9
2020-Sep-23 17:00 281 6 gusting 11 23.9
2020-Sep-23 16:55 275 5 gusting 9 23.9
2020-Sep-23 16:50 256 6 gusting 8 23.8
2020-Sep-23 16:45 254 6 gusting 9 23.5
2020-Sep-23 16:40 278 7 gusting 11 23.6
2020-Sep-23 16:35 281 5 gusting 8 23.4
2020-Sep-23 16:30 270 7 gusting 10 23.4
2020-Sep-23 16:25 282 5 gusting 8 23.3
2020-Sep-23 16:20 270 6 gusting 8 23.1
2020-Sep-23 16:15 270 6 gusting 10 23.1
2020-Sep-23 16:10 270 6 gusting 10 23.0
2020-Sep-23 16:05 275 6 gusting 9 22.9
2020-Sep-23 16:00 287 6 gusting 11 22.7
2020-Sep-23 15:55 273 6 gusting 11 22.7
2020-Sep-23 15:50 287 6 gusting 10 22.6
2020-Sep-23 15:45 285 7 gusting 10 22.7
2020-Sep-23 15:40 287 4 gusting 8 22.4
2020-Sep-23 15:35 293 5 gusting 7 22.3
2020-Sep-23 15:30 277 5 gusting 9 22.3
2020-Sep-23 15:25 280 6 gusting 9 22.3
2020-Sep-23 15:20 290 4 gusting 7 22.1
2020-Sep-23 15:15 279 6 gusting 9 21.9
2020-Sep-23 15:10 273 6 gusting 9 21.6
2020-Sep-23 15:05 297 5 gusting 8 21.6
2020-Sep-23 15:00 300 5 gusting 9 21.4
2020-Sep-23 14:55 292 6 gusting 9 21.4
2020-Sep-23 14:50 303 5 gusting 8 21.4
2020-Sep-23 14:45 312 5 gusting 8 21.2
2020-Sep-23 14:40 294 5 gusting 8 21.0
2020-Sep-23 14:35 304 5 gusting 9 21.0
2020-Sep-23 14:30 294 4 gusting 6 20.8
2020-Sep-23 14:25 288 6 gusting 8 20.7
2020-Sep-23 14:20 293 4 gusting 7 20.5
2020-Sep-23 14:15 300 5 gusting 8 20.4
2020-Sep-23 14:10 290 4 gusting 7 20.1
2020-Sep-23 14:05 305 5 gusting 7 19.8
2020-Sep-23 14:00 288 5 gusting 9 19.7
2020-Sep-23 13:55 296 5 gusting 8 19.5
2020-Sep-23 13:50 289 4 gusting 8 19.2
2020-Sep-23 13:45 294 4 gusting 6 19.0
2020-Sep-23 13:40 296 4 gusting 7 18.8
2020-Sep-23 13:35 300 2 gusting 4 18.5
2020-Sep-23 13:30 290 4 gusting 7 18.3
2020-Sep-23 13:25 300 4 gusting 8 18.0
2020-Sep-23 13:20 307 4 gusting 7 17.6
2020-Sep-23 13:15 302 3 gusting 8 17.4
2020-Sep-23 13:10 299 3 gusting 5 17.0
2020-Sep-23 13:05 297 3 gusting 7 16.7
2020-Sep-23 13:00 301 3 gusting 5 16.3
2020-Sep-23 12:55 301 3 gusting 5 15.9
2020-Sep-23 12:50 297 3 gusting 6 15.6
2020-Sep-23 12:45 300 3 gusting 6 15.3
2020-Sep-23 12:40 299 3 gusting 6 15.0
2020-Sep-23 12:35 301 3 gusting 5 14.7
2020-Sep-23 12:30 297 2 gusting 5 14.5
2020-Sep-23 12:25 297 2 gusting 4 14.3
2020-Sep-23 12:20 297 2 gusting 5 14.0
2020-Sep-23 12:15 291 2 gusting 3 13.7
2020-Sep-23 12:10 288 1 gusting 3 13.5
2020-Sep-23 12:05 298 1 gusting 3 13.3
2020-Sep-23 12:00 307 1 gusting 3 13.0
2020-Sep-23 11:55 311 1 gusting 3 12.8
2020-Sep-23 11:50 308 1 gusting 2 12.4
2020-Sep-23 11:45 302 1 gusting 2 12.2
2020-Sep-23 11:40 300 1 gusting 4 11.9
2020-Sep-23 11:35 300 2 gusting 3 11.7
2020-Sep-23 11:30 301 1 gusting 3 11.7
2020-Sep-23 11:25 304 1 gusting 3 11.5
2020-Sep-23 11:20 301 2 gusting 4 11.3
2020-Sep-23 11:15 296 2 gusting 3 11.2
2020-Sep-23 11:10 294 1 gusting 3 11.1
2020-Sep-23 11:05 295 1 gusting 3 11.1
2020-Sep-23 11:00 301 1 gusting 3 11.1
2020-Sep-23 10:55 293 2 gusting 4 11.1
2020-Sep-23 10:50 293 2 gusting 3 11.1
2020-Sep-23 10:45 296 2 gusting 3 11.2
2020-Sep-23 10:40 298 2 gusting 3 11.2
2020-Sep-23 10:35 298 2 gusting 3 11.3
2020-Sep-23 10:30 302 2 gusting 3 11.3
2020-Sep-23 10:25 303 1 gusting 3 11.5
2020-Sep-23 10:20 304 2 gusting 4 11.3
2020-Sep-23 10:15 304 2 gusting 3 11.1
2020-Sep-23 10:10 301 2 gusting 3 11.2
2020-Sep-23 10:05 304 2 gusting 3 11.2
2020-Sep-23 10:00 300 2 gusting 3 11.2
2020-Sep-23 09:55 296 1 gusting 3 11.3
2020-Sep-23 09:50 296 2 gusting 4 11.4
2020-Sep-23 09:45 296 2 gusting 3 11.2
2020-Sep-23 09:40 294 2 gusting 2 11.1
2020-Sep-23 09:35 288 1 gusting 2 11.1
2020-Sep-23 09:30 288 2 gusting 3 11.1
2020-Sep-23 09:25 292 2 gusting 3 11.2
2020-Sep-23 09:20 293 2 gusting 3 11.4
2020-Sep-23 09:15 295 2 gusting 3 11.8
2020-Sep-23 09:10 297 2 gusting 4 11.8
2020-Sep-23 09:05 294 2 gusting 3 11.9
2020-Sep-23 09:00 295 2 gusting 4 11.9
2020-Sep-23 08:55 300 2 gusting 3 12.0
2020-Sep-23 08:50 296 2 gusting 4 12.0
2020-Sep-23 08:45 298 2 gusting 4 12.0
2020-Sep-23 08:40 298 2 gusting 3 12.0
2020-Sep-23 08:35 295 2 gusting 4 11.8
2020-Sep-23 08:30 292 2 gusting 3 11.8
2020-Sep-23 08:25 295 2 gusting 4 11.7
2020-Sep-23 08:20 295 2 gusting 4 11.6
2020-Sep-23 08:15 291 2 gusting 4 11.9
2020-Sep-23 08:10 294 3 gusting 4 12.1
2020-Sep-23 08:05 296 2 gusting 4 12.2
2020-Sep-23 08:00 297 2 gusting 5 12.0
2020-Sep-23 07:55 289 2 gusting 3 11.9
2020-Sep-23 07:50 290 2 gusting 4 12.2
2020-Sep-23 07:45 293 3 gusting 5 12.2
2020-Sep-23 07:40 295 2 gusting 4 11.9
2020-Sep-23 07:35 292 2 gusting 3 11.7
2020-Sep-23 07:30 286 2 gusting 4 11.4
2020-Sep-23 07:25 278 2 gusting 3 11.2
2020-Sep-23 07:20 284 2 gusting 3 11.3
2020-Sep-23 07:15 288 2 gusting 3 11.6
2020-Sep-23 07:10 291 2 gusting 2 11.7
2020-Sep-23 07:05 286 1 gusting 2 11.9
2020-Sep-23 07:00 290 1 gusting 2 12.1
2020-Sep-23 06:55 297 1 gusting 2 12.1
2020-Sep-23 06:50 303 0 gusting 2 12.2
2020-Sep-23 06:45 284 0 gusting 2 12.3
2020-Sep-23 06:40 269 1 gusting 3 12.3
2020-Sep-23 06:35 271 1 gusting 2 12.3
2020-Sep-23 06:30 274 1 gusting 2 12.4
2020-Sep-23 06:25 268 1 gusting 3 12.4
2020-Sep-23 06:20 269 2 gusting 4 12.3
2020-Sep-23 06:15 267 1 gusting 3 12.2
2020-Sep-23 06:10 268 0 gusting 2 12.4
2020-Sep-23 06:05 270 0 gusting 1 12.5
2020-Sep-23 06:00 255 0 gusting 2 12.5
2020-Sep-23 05:55 253 1 gusting 3 12.5
2020-Sep-23 05:50 243 1 gusting 2 12.6
2020-Sep-23 05:45 244 1 gusting 3 12.7
2020-Sep-23 05:40 248 2 gusting 3 12.6
2020-Sep-23 05:35 245 1 gusting 3 12.5
2020-Sep-23 05:30 250 1 gusting 3 12.5
2020-Sep-23 05:25 249 1 gusting 2 12.6
2020-Sep-23 05:20 247 2 gusting 3 12.5
2020-Sep-23 05:15 246 1 gusting 4 12.3
2020-Sep-23 05:10 236 1 gusting 2 12.0
2020-Sep-23 05:05 237 0 gusting 3 11.8
2020-Sep-23 05:00 235 0 gusting 2 11.9
2020-Sep-23 04:55 235 0 gusting 1 12.0
2020-Sep-23 04:50 239 0 gusting 2 12.1
2020-Sep-23 04:45 238 0 gusting 2 12.1
2020-Sep-23 04:40 233 0 gusting 2 12.2
2020-Sep-23 04:35 233 0 gusting 3 12.3
2020-Sep-23 04:30 240 0 gusting 1 12.4
2020-Sep-23 04:25 242 0 gusting 2 12.5
2020-Sep-23 04:20 243 1 gusting 3 12.3
2020-Sep-23 04:15 230 2 gusting 3 12.1
2020-Sep-23 04:10 226 1 gusting 3 12.3
2020-Sep-23 04:05 242 1 gusting 3 12.3
2020-Sep-23 04:00 243 0 gusting 2 12.1
2020-Sep-23 03:55 230 1 gusting 2 12.1
2020-Sep-23 03:50 224 1 gusting 3 12.2
2020-Sep-23 03:45 241 1 gusting 3 12.2
2020-Sep-23 03:40 252 0 gusting 2 12.0
2020-Sep-23 03:35 247 12.0
2020-Sep-23 03:30 234 12.0
2020-Sep-23 03:25 228 0 gusting 1 12.0
2020-Sep-23 03:20 232 12.1
2020-Sep-23 03:15 224 0 gusting 1 12.1
2020-Sep-23 03:10 221 0 gusting 2 12.2
2020-Sep-23 03:05 224 2 gusting 3 12.4
2020-Sep-23 03:00 229 0 gusting 3 12.4
2020-Sep-23 02:55 229 0 gusting 1 12.4
2020-Sep-23 02:50 232 0 gusting 1 12.4
2020-Sep-23 02:45 229 1 gusting 2 12.5
2020-Sep-23 02:40 242 0 gusting 1 12.7
2020-Sep-23 02:35 248 0 gusting 2 12.9
2020-Sep-23 02:30 241 0 gusting 2 13.1
2020-Sep-23 02:25 243 0 gusting 3 13.2
2020-Sep-23 02:20 234 2 gusting 3 13.2
2020-Sep-23 02:15 230 1 gusting 3 13.3
2020-Sep-23 02:10 234 2 gusting 3 13.3
2020-Sep-23 02:05 233 1 gusting 3 13.2
2020-Sep-23 02:00 231 2 gusting 3 13.2
2020-Sep-23 01:55 227 2 gusting 4 13.3
2020-Sep-23 01:50 229 3 gusting 5 13.4
2020-Sep-23 01:45 229 2 gusting 3 13.4
2020-Sep-23 01:40 230 2 gusting 3 13.5
2020-Sep-23 01:35 229 2 gusting 4 13.6
2020-Sep-23 01:30 233 2 gusting 3 13.7
2020-Sep-23 01:25 238 1 gusting 2 13.8
2020-Sep-23 01:20 238 1 gusting 4 13.8
2020-Sep-23 01:15 238 2 gusting 4 13.8
2020-Sep-23 01:10 234 2 gusting 3 13.7
2020-Sep-23 01:05 234 1 gusting 3 13.6
2020-Sep-23 01:00 234 2 gusting 3 13.6
2020-Sep-23 00:55 233 2 gusting 3 13.9
2020-Sep-23 00:50 241 0 gusting 3 13.8
2020-Sep-23 00:45 236 1 gusting 2 14.1
2020-Sep-23 00:40 241 1 gusting 2 14.3
2020-Sep-23 00:35 242 1 gusting 3 14.5
2020-Sep-23 00:30 242 1 gusting 4 14.6
2020-Sep-23 00:25 240 1 gusting 3 14.6
2020-Sep-23 00:20 234 2 gusting 4 14.5
2020-Sep-23 00:15 231 2 gusting 3 14.4
2020-Sep-23 00:10 229 2 gusting 3 14.6
2020-Sep-23 00:05 236 2 gusting 5 15.1
2020-Sep-23 00:00 245 2 gusting 4 15.6
2020-Sep-22 23:55 249 2 gusting 4 15.8
2020-Sep-22 23:50 248 2 gusting 4 15.8
2020-Sep-22 23:45 246 2 gusting 4 15.8
2020-Sep-22 23:40 246 2 gusting 4 15.7
2020-Sep-22 23:35 246 1 gusting 4 15.4
2020-Sep-22 23:30 245 1 gusting 4 15.8
2020-Sep-22 23:25 244 1 gusting 4 16.0
2020-Sep-22 23:20 242 2 gusting 4 16.2
2020-Sep-22 23:15 244 2 gusting 4 16.5
2020-Sep-22 23:10 248 2 gusting 4 16.8
2020-Sep-22 23:05 243 2 gusting 5 17.0
2020-Sep-22 23:00 242 2 gusting 4 17.5
2020-Sep-22 22:55 247 3 gusting 5 17.7
2020-Sep-22 22:50 248 3 gusting 5 17.9
2020-Sep-22 22:45 251 3 gusting 5 18.1
2020-Sep-22 22:40 250 3 gusting 5 18.3
2020-Sep-22 22:35 255 3 gusting 4 18.3
2020-Sep-22 22:30 258 3 gusting 5 18.4
2020-Sep-22 22:25 264 3 gusting 6 18.5
2020-Sep-22 22:20 266 3 gusting 5 18.8
2020-Sep-22 22:15 272 4 gusting 6 19.0
2020-Sep-22 22:10 274 5 gusting 9 19.2
2020-Sep-22 22:05 275 5 gusting 8 19.3
2020-Sep-22 22:00 271 5 gusting 8 19.5
2020-Sep-22 21:55 272 5 gusting 9 19.6
2020-Sep-22 21:50 278 5 gusting 8 19.7
2020-Sep-22 21:45 277 5 gusting 8 19.9
2020-Sep-22 21:40 275 5 gusting 7 20.0
2020-Sep-22 21:35 273 6 gusting 9 20.0
2020-Sep-22 21:30 276 6 gusting 11 20.1
2020-Sep-22 21:25 272 5 gusting 8 20.2
2020-Sep-22 21:20 275 6 gusting 10 20.2
2020-Sep-22 21:15 275 7 gusting 10 20.3
2020-Sep-22 21:10 276 6 gusting 10 20.4
2020-Sep-22 21:05 276 5 gusting 9 20.5
2020-Sep-22 21:00 279 6 gusting 9 20.5
2020-Sep-22 20:55 276 6 gusting 10 20.5
2020-Sep-22 20:50 275 6 gusting 9 20.5
2020-Sep-22 20:45 279 6 gusting 8 20.5
2020-Sep-22 20:40 306 6 gusting 9 20.4
2020-Sep-22 20:35 309 6 gusting 8 20.6
2020-Sep-22 20:30 287 6 gusting 9 20.7
2020-Sep-22 20:25 290 6 gusting 8 20.5
2020-Sep-22 20:20 296 8 gusting 11 20.5
2020-Sep-22 20:15 289 6 gusting 9 20.5
2020-Sep-22 20:10 281 8 gusting 11 20.5
2020-Sep-22 20:05 298 5 gusting 9 20.5
2020-Sep-22 20:00 296 6 gusting 11 20.6
2020-Sep-22 19:55 285 7 gusting 13 20.7
2020-Sep-22 19:50 290 6 gusting 11 20.7
2020-Sep-22 19:45 295 7 gusting 12 20.7
2020-Sep-22 19:40 279 7 gusting 11 20.7
2020-Sep-22 19:35 289 7 gusting 9 20.6
2020-Sep-22 19:30 305 6 gusting 12 20.8
2020-Sep-22 19:25 285 5 gusting 11 20.9
2020-Sep-22 19:20 288 6 gusting 11 20.9
2020-Sep-22 19:15 301 5 gusting 10 20.6
2020-Sep-22 19:10 303 6 gusting 11 20.8
2020-Sep-22 19:05 303 5 gusting 11 20.6
2020-Sep-22 19:00 295 6 gusting 10 20.9
2020-Sep-22 18:55 308 5 gusting 11 20.8
2020-Sep-22 18:50 299 6 gusting 10 20.7
2020-Sep-22 18:45 295 5 gusting 9 20.6
2020-Sep-22 18:40 297 7 gusting 12 20.7
2020-Sep-22 18:35 292 6 gusting 9 20.4
2020-Sep-22 18:30 295 7 gusting 12 20.4
2020-Sep-22 18:25 291 8 gusting 13 20.5
2020-Sep-22 18:20 305 6 gusting 10 20.4
2020-Sep-22 18:15 297 7 gusting 14 20.3
2020-Sep-22 18:10 285 7 gusting 12 20.2
2020-Sep-22 18:05 299 6 gusting 13 20.1
2020-Sep-22 18:00 302 8 gusting 13 20.1
2020-Sep-22 17:55 294 7 gusting 11 20.0
2020-Sep-22 17:50 298 8 gusting 12 20.1
2020-Sep-22 17:45 290 6 gusting 10 20.0
2020-Sep-22 17:40 288 8 gusting 13 19.8
2020-Sep-22 17:35 278 8 gusting 12 19.8
2020-Sep-22 17:30 311 8 gusting 14 19.9
2020-Sep-22 17:25 280 7 gusting 13 19.9
2020-Sep-22 17:20 280 8 gusting 14 19.8
2020-Sep-22 17:15 323 8 gusting 13 19.7
2020-Sep-22 17:10 335 9 gusting 13 19.7
2020-Sep-22 17:05 307 7 gusting 12 19.5
2020-Sep-22 17:00 303 7 gusting 12 19.5
2020-Sep-22 16:55 314 8 gusting 12 19.6
2020-Sep-22 16:50 316 7 gusting 12 19.4
2020-Sep-22 16:45 320 7 gusting 11 19.2
2020-Sep-22 16:40 318 8 gusting 13 19.1
2020-Sep-22 16:35 321 7 gusting 11 19.1
2020-Sep-22 16:30 320 8 gusting 14 18.9
2020-Sep-22 16:25 315 8 gusting 12 18.7
2020-Sep-22 16:20 293 8 gusting 13 18.7
2020-Sep-22 16:15 327 7 gusting 14 18.7
2020-Sep-22 16:10 340 8 gusting 13 18.6
2020-Sep-22 16:05 323 7 gusting 11 18.5
2020-Sep-22 16:00 331 8 gusting 12 18.5
2020-Sep-22 15:55 332 7 gusting 12 18.2
2020-Sep-22 15:50 313 7 gusting 11 18.0
2020-Sep-22 15:45 334 7 gusting 12 18.1
2020-Sep-22 15:40 333 6 gusting 10 18.1
2020-Sep-22 15:35 337 6 gusting 9 17.8
2020-Sep-22 15:30 327 7 gusting 10 17.7
2020-Sep-22 15:25 327 8 gusting 13 17.5
2020-Sep-22 15:20 315 7 gusting 11 17.7
2020-Sep-22 15:15 344 6 gusting 10 17.4
2020-Sep-22 15:10 345 8 gusting 12 17.3
2020-Sep-22 15:05 329 6 gusting 10 17.1
2020-Sep-22 15:00 323 6 gusting 10 17.0
2020-Sep-22 14:55 314 6 gusting 10 17.0
2020-Sep-22 14:50 306 5 gusting 9 16.9
2020-Sep-22 14:45 324 6 gusting 12 16.7
2020-Sep-22 14:40 320 6 gusting 12 16.6
2020-Sep-22 14:35 333 6 gusting 9 16.3
2020-Sep-22 14:30 326 6 gusting 10 16.1
2020-Sep-22 14:25 324 6 gusting 11 16.0
2020-Sep-22 14:20 323 5 gusting 7 15.7
2020-Sep-22 14:15 324 6 gusting 9 15.6
2020-Sep-22 14:10 339 5 gusting 8 15.3
2020-Sep-22 14:05 332 6 gusting 9 15.1
2020-Sep-22 14:00 340 5 gusting 8 15.0
2020-Sep-22 13:55 328 5 gusting 7 14.7
2020-Sep-22 13:50 322 5 gusting 7 14.5
2020-Sep-22 13:45 330 4 gusting 6 14.3
2020-Sep-22 13:40 319 4 gusting 7 14.1
2020-Sep-22 13:35 319 3 gusting 8 13.8
2020-Sep-22 13:30 322 4 gusting 5 13.5
2020-Sep-22 13:25 323 5 gusting 8 13.1
2020-Sep-22 13:20 316 4 gusting 6 12.9
2020-Sep-22 13:15 317 4 gusting 6 12.6
2020-Sep-22 13:10 315 4 gusting 6 12.2
2020-Sep-22 13:05 316 4 gusting 7 11.9
2020-Sep-22 13:00 316 4 gusting 6 11.7
2020-Sep-22 12:55 316 3 gusting 5 11.6
2020-Sep-22 12:50 329 4 gusting 6 11.2
2020-Sep-22 12:45 325 3 gusting 6 11.0
2020-Sep-22 12:40 332 3 gusting 5 10.7
2020-Sep-22 12:35 324 3 gusting 4 10.3
2020-Sep-22 12:30 318 3 gusting 5 9.9
2020-Sep-22 12:25 325 3 gusting 5 9.6
2020-Sep-22 12:20 327 2 gusting 4 9.3
2020-Sep-22 12:15 325 2 gusting 4 9.1
2020-Sep-22 12:10 325 2 gusting 3 8.7
2020-Sep-22 12:05 330 1 gusting 3 8.5
2020-Sep-22 12:00 325 1 gusting 3 8.2
2020-Sep-22 11:55 328 1 gusting 2 8.1
2020-Sep-22 11:50 328 1 gusting 2 7.8
2020-Sep-22 11:45 328 1 gusting 2 7.6
2020-Sep-22 11:40 332 2 gusting 3 7.5
2020-Sep-22 11:35 339 1 gusting 2 7.4
2020-Sep-22 11:30 322 2 gusting 4 7.3
2020-Sep-22 11:25 311 2 gusting 3 7.2
2020-Sep-22 11:20 309 2 gusting 4 7.1
2020-Sep-22 11:15 306 2 gusting 3 7.0
2020-Sep-22 11:10 309 2 gusting 3 6.9
2020-Sep-22 11:05 306 2 gusting 4 6.8
2020-Sep-22 11:00 300 3 gusting 4 6.8
2020-Sep-22 10:55 301 3 gusting 4 6.6
2020-Sep-22 10:50 303 2 gusting 4 6.2
2020-Sep-22 10:45 309 1 gusting 2 6.1
2020-Sep-22 10:40 315 1 gusting 2 6.2
2020-Sep-22 10:35 310 2 gusting 3 6.2
2020-Sep-22 10:30 314 2 gusting 3 6.3
2020-Sep-22 10:25 321 1 gusting 3 6.2
2020-Sep-22 10:20 321 1 gusting 2 6.1
2020-Sep-22 10:15 318 1 gusting 2 6.1
2020-Sep-22 10:10 321 2 gusting 3 6.2
2020-Sep-22 10:05 315 1 gusting 2 6.3
2020-Sep-22 10:00 311 2 gusting 2 6.3
2020-Sep-22 09:55 312 2 gusting 3 6.3
2020-Sep-22 09:50 317 1 gusting 2 6.4
2020-Sep-22 09:45 314 2 gusting 3 6.4
2020-Sep-22 09:40 315 2 gusting 3 6.4
2020-Sep-22 09:35 318 2 gusting 3 6.4
2020-Sep-22 09:30 324 2 gusting 3 6.5
2020-Sep-22 09:25 322 2 gusting 4 6.4
2020-Sep-22 09:20 315 2 gusting 2 6.4
2020-Sep-22 09:15 326 2 gusting 3 6.4
2020-Sep-22 09:10 326 2 gusting 3 6.5
2020-Sep-22 09:05 321 3 gusting 4 6.5
2020-Sep-22 09:00 320 2 gusting 3 6.5
2020-Sep-22 08:55 321 3 gusting 4 6.6
2020-Sep-22 08:50 324 2 gusting 3 6.6
2020-Sep-22 08:45 324 2 gusting 3 6.5
2020-Sep-22 08:40 324 2 gusting 3 6.4
2020-Sep-22 08:35 325 2 gusting 3 6.5
2020-Sep-22 08:30 319 2 gusting 3 6.4
2020-Sep-22 08:25 322 2 gusting 2 6.3
2020-Sep-22 08:20 328 2 gusting 3 6.3
2020-Sep-22 08:15 320 2 gusting 3 6.3
2020-Sep-22 08:10 320 2 gusting 3 6.4
2020-Sep-22 08:05 321 2 gusting 3 6.3
2020-Sep-22 08:00 322 2 gusting 3 6.3
2020-Sep-22 07:55 321 2 gusting 2 6.4
2020-Sep-22 07:50 318 2 gusting 3 6.6
2020-Sep-22 07:45 315 2 gusting 2 6.6
2020-Sep-22 07:40 312 1 gusting 2 6.4
2020-Sep-22 07:35 313 1 gusting 2 6.4
2020-Sep-22 07:30 316 1 gusting 2 6.3
2020-Sep-22 07:25 318 1 gusting 2 6.3
2020-Sep-22 07:20 317 1 gusting 2 6.1
2020-Sep-22 07:15 318 0 gusting 1 6.3
2020-Sep-22 07:10 315 0 gusting 2 6.6
2020-Sep-22 07:05 310 0 gusting 2 6.5
2020-Sep-22 07:00 308 0 gusting 1 6.3